Time,TemperatureF,DewpointF,PressureIn,WindDirection,WindDirectionDegrees,WindSpeedMPH,WindSpeedGustMPH,Humidity,HourlyPrecipIn,Conditions,Clouds,dailyrainin,SoftwareType,DateUTC
2013-04-11 00:02:00,36.0,20.0,30.01,NNE,32,4.0,-999.0,51,-99.99,,,-99.99,,2013-04-11 05:02:00,
2013-04-11 00:13:00,36.0,20.0,30.01,NNE,32,4.0,-999.0,51,-99.99,,,-99.99,,2013-04-11 05:13:00,
2013-04-11 00:22:00,36.0,20.0,29.98,North,7,11.0,-999.0,51,-99.99,,,-99.99,,2013-04-11 05:22:00,
2013-04-11 00:32:00,36.0,20.0,29.98,North,7,11.0,-999.0,51,-99.99,,,-99.99,,2013-04-11 05:32:00,
2013-04-11 00:42:00,36.0,20.0,29.98,North,7,11.0,-999.0,51,-99.99,,,-99.99,,2013-04-11 05:42:00,
2013-04-11 00:52:00,36.0,19.0,29.97,NE,42,15.0,-999.0,50,-99.99,,,-99.99,,2013-04-11 05:52:00,
2013-04-11 01:02:00,36.0,19.0,29.97,NE,42,15.0,-999.0,50,-99.99,,,-99.99,,2013-04-11 06:02:00,
2013-04-11 01:12:00,36.0,19.0,29.97,NE,42,15.0,-999.0,50,-99.99,,,-99.99,,2013-04-11 06:12:00,
2013-04-11 01:22:00,36.0,18.0,29.96,NNE,29,12.0,-999.0,47,-99.99,,,-99.99,,2013-04-11 06:22:00,
2013-04-11 01:32:00,36.0,18.0,29.96,NNE,29,12.0,-999.0,47,-99.99,,,-99.99,,2013-04-11 06:32:00,
2013-04-11 01:42:00,36.0,18.0,29.96,NNE,29,12.0,-999.0,47,-99.99,,,-99.99,,2013-04-11 06:42:00,
2013-04-11 01:52:00,36.0,18.0,29.94,NE,53,13.0,-999.0,47,-99.99,,,-99.99,,2013-04-11 06:52:00,
2013-04-11 02:02:00,36.0,18.0,29.94,NE,53,13.0,-999.0,47,-99.99,,,-99.99,,2013-04-11 07:02:00,
2013-04-11 02:12:00,36.0,18.0,29.94,NE,53,13.0,-999.0,47,-99.99,,,-99.99,,2013-04-11 07:12:00,
2013-04-11 02:22:00,36.0,17.0,29.92,NE,53,8.0,-999.0,46,-99.99,,,-99.99,,2013-04-11 07:22:00,
2013-04-11 02:32:00,36.0,17.0,29.92,NE,53,8.0,-999.0,46,-99.99,,,-99.99,,2013-04-11 07:32:00,
2013-04-11 02:43:00,36.0,17.0,29.92,NE,53,8.0,-999.0,46,-99.99,,,-99.99,,2013-04-11 07:43:00,
2013-04-11 02:52:00,36.0,17.0,29.90,NE,52,10.0,-999.0,46,-99.99,,,-99.99,,2013-04-11 07:52:00,
2013-04-11 03:02:00,36.0,17.0,29.90,NE,52,10.0,-999.0,46,-99.99,,,-99.99,,2013-04-11 08:02:00,
2013-04-11 03:12:00,36.0,17.0,29.90,NE,52,10.0,-999.0,46,-99.99,,,-99.99,,2013-04-11 08:12:00,
2013-04-11 03:22:00,36.0,17.0,29.89,NE,39,10.0,-999.0,45,-99.99,,,-99.99,,2013-04-11 08:22:00,
2013-04-11 03:32:00,36.0,17.0,29.89,NE,39,10.0,-999.0,45,-99.99,,,-99.99,,2013-04-11 08:32:00,
2013-04-11 03:43:00,36.0,17.0,29.89,NE,39,10.0,-999.0,45,-99.99,,,-99.99,,2013-04-11 08:43:00,
2013-04-11 03:52:00,35.0,15.0,29.89,NE,46,9.0,-999.0,44,-99.99,,,-99.99,,2013-04-11 08:52:00,
2013-04-11 04:02:00,35.0,15.0,29.89,NE,46,9.0,-999.0,44,-99.99,,,-99.99,,2013-04-11 09:02:00,
2013-04-11 04:12:00,34.0,17.0,29.87,ENE,74,3.0,-999.0,50,-99.99,,,-99.99,,2013-04-11 09:12:00,
2013-04-11 04:22:00,34.0,17.0,29.87,ENE,74,3.0,-999.0,50,-99.99,,,-99.99,,2013-04-11 09:22:00,
2013-04-11 04:33:00,34.0,17.0,29.87,ENE,74,3.0,-999.0,50,-99.99,,,-99.99,,2013-04-11 09:33:00,
2013-04-11 04:43:00,34.0,17.0,29.87,ENE,74,3.0,-999.0,50,-99.99,,,-99.99,,2013-04-11 09:43:00,
2013-04-11 04:53:00,34.0,18.0,29.86,NE,42,13.0,-999.0,51,-99.99,,,-99.99,,2013-04-11 09:53:00,
2013-04-11 05:02:00,34.0,18.0,29.86,NE,42,13.0,-999.0,51,-99.99,,,-99.99,,2013-04-11 10:02:00,
2013-04-11 05:12:00,33.0,18.0,29.83,NNE,32,13.0,-999.0,54,-99.99,,,-99.99,,2013-04-11 10:12:00,
2013-04-11 05:23:00,33.0,18.0,29.83,NNE,32,13.0,-999.0,54,-99.99,,,-99.99,,2013-04-11 10:23:00,
2013-04-11 05:32:00,33.0,18.0,29.83,NNE,32,13.0,-999.0,54,-99.99,,,-99.99,,2013-04-11 10:32:00,
2013-04-11 05:42:00,33.0,18.0,29.83,NNE,32,13.0,-999.0,54,-99.99,,,-99.99,,2013-04-11 10:42:00,
2013-04-11 05:52:00,32.0,19.0,29.83,NE,43,7.0,-999.0,58,-99.99,,,-99.99,,2013-04-11 10:52:00,
2013-04-11 06:02:00,32.0,19.0,29.83,NE,43,7.0,-999.0,58,-99.99,,,-99.99,,2013-04-11 11:02:00,
2013-04-11 06:12:00,32.0,19.0,29.83,NE,43,7.0,-999.0,58,-99.99,,,-99.99,,2013-04-11 11:12:00,
2013-04-11 06:22:00,32.0,21.0,29.87,NE,50,3.0,-999.0,63,-99.99,,,-99.99,,2013-04-11 11:22:00,
2013-04-11 06:32:00,32.0,21.0,29.87,NE,50,3.0,-999.0,63,-99.99,,,-99.99,,2013-04-11 11:32:00,
2013-04-11 06:43:00,30.0,23.0,29.90,NE,50,2.0,-999.0,75,-99.99,,,-99.99,,2013-04-11 11:43:00,
2013-04-11 06:52:00,30.0,23.0,29.90,NE,50,2.0,-999.0,75,-99.99,,,-99.99,,2013-04-11 11:52:00,
2013-04-11 07:02:00,30.0,23.0,29.90,NE,50,2.0,-999.0,75,-99.99,,,-99.99,,2013-04-11 12:02:00,
2013-04-11 07:12:00,29.0,25.0,29.86,NNE,14,5.0,-999.0,84,-99.99,,,-99.99,,2013-04-11 12:12:00,
2013-04-11 07:22:00,29.0,25.0,29.86,NNE,14,5.0,-999.0,84,-99.99,,,-99.99,,2013-04-11 12:22:00,
2013-04-11 07:32:00,29.0,25.0,29.86,NNE,14,5.0,-999.0,84,-99.99,,,-99.99,,2013-04-11 12:32:00,
2013-04-11 07:43:00,29.0,25.0,29.86,NNE,14,5.0,-999.0,84,-99.99,,,-99.99,,2013-04-11 12:43:00,
2013-04-11 07:52:00,28.0,25.0,29.86,ENE,61,14.0,-999.0,88,-99.99,,,-99.99,,2013-04-11 12:52:00,
2013-04-11 08:02:00,28.0,25.0,29.86,ENE,61,14.0,-999.0,88,-99.99,,,-99.99,,2013-04-11 13:02:00,
2013-04-11 08:12:00,28.0,25.0,29.84,North,2,5.0,-999.0,89,-99.99,,,-99.99,,2013-04-11 13:12:00,
2013-04-11 08:23:00,28.0,25.0,29.84,North,2,5.0,-999.0,89,-99.99,,,-99.99,,2013-04-11 13:23:00,
2013-04-11 08:32:00,28.0,25.0,29.84,North,2,5.0,-999.0,89,-99.99,,,-99.99,,2013-04-11 13:32:00,
2013-04-11 08:43:00,28.0,25.0,29.84,North,2,5.0,-999.0,89,-99.99,,,-99.99,,2013-04-11 13:43:00,
2013-04-11 08:54:00,28.0,25.0,29.83,NE,47,5.0,-999.0,90,-99.99,,,-99.99,,2013-04-11 13:54:00,
2013-04-11 09:02:00,28.0,25.0,29.83,NE,47,5.0,-999.0,90,-99.99,,,-99.99,,2013-04-11 14:02:00,
2013-04-11 09:12:00,28.0,26.0,29.83,NE,40,10.0,-999.0,91,-99.99,,,-99.99,,2013-04-11 14:12:00,
2013-04-11 09:22:00,28.0,26.0,29.83,NE,40,10.0,-999.0,91,-99.99,,,-99.99,,2013-04-11 14:22:00,
2013-04-11 09:32:00,28.0,26.0,29.83,NE,40,10.0,-999.0,91,-99.99,,,-99.99,,2013-04-11 14:32:00,
2013-04-11 09:42:00,28.0,26.0,29.83,NE,40,10.0,-999.0,91,-99.99,,,-99.99,,2013-04-11 14:42:00,
2013-04-11 09:52:00,29.0,27.0,29.82,NE,56,10.0,-999.0,92,-99.99,,,-99.99,,2013-04-11 14:52:00,
2013-04-11 10:02:00,29.0,27.0,29.82,NE,56,10.0,-999.0,92,-99.99,,,-99.99,,2013-04-11 15:02:00,
2013-04-11 10:12:00,30.0,28.0,29.81,NE,54,10.0,-999.0,93,-99.99,,,-99.99,,2013-04-11 15:12:00,
2013-04-11 10:22:00,30.0,28.0,29.81,NE,54,10.0,-999.0,93,-99.99,,,-99.99,,2013-04-11 15:22:00,
2013-04-11 10:32:00,30.0,28.0,29.81,NE,54,10.0,-999.0,93,-99.99,,,-99.99,,2013-04-11 15:32:00,
2013-04-11 10:43:00,31.0,29.0,29.82,ENE,73,13.0,-999.0,92,-99.99,,,-99.99,,2013-04-11 15:43:00,
2013-04-11 10:53:00,31.0,29.0,29.82,ENE,73,13.0,-999.0,92,-99.99,,,-99.99,,2013-04-11 15:53:00,
2013-04-11 11:02:00,31.0,29.0,29.82,ENE,73,13.0,-999.0,92,-99.99,,,-99.99,,2013-04-11 16:02:00,
2013-04-11 11:12:00,31.0,29.0,29.82,ENE,73,13.0,-999.0,92,-99.99,,,-99.99,,2013-04-11 16:12:00,
2013-04-11 11:23:00,32.0,30.0,29.81,ENE,78,14.0,-999.0,91,-99.99,,,-99.99,,2013-04-11 16:23:00,
2013-04-11 11:32:00,32.0,30.0,29.81,ENE,78,14.0,-999.0,91,-99.99,,,-99.99,,2013-04-11 16:32:00,
2013-04-11 11:42:00,33.0,30.0,29.82,ENE,65,13.0,-999.0,88,-99.99,,,-99.99,,2013-04-11 16:42:00,
2013-04-11 11:53:00,33.0,30.0,29.82,ENE,65,13.0,-999.0,88,-99.99,,,-99.99,,2013-04-11 16:53:00,
2013-04-11 12:02:00,33.0,30.0,29.82,ENE,65,13.0,-999.0,88,-99.99,,,-99.99,,2013-04-11 17:02:00,
2013-04-11 12:12:00,33.0,30.0,29.82,ENE,65,13.0,-999.0,88,-99.99,,,-99.99,,2013-04-11 17:12:00,
2013-04-11 12:23:00,33.0,29.0,29.82,ENE,69,7.0,-999.0,85,-99.99,,,-99.99,,2013-04-11 17:23:00,
2013-04-11 12:32:00,33.0,29.0,29.82,ENE,69,7.0,-999.0,85,-99.99,,,-99.99,,2013-04-11 17:32:00,
2013-04-11 12:43:00,33.0,29.0,29.82,ENE,69,7.0,-999.0,85,-99.99,,,-99.99,,2013-04-11 17:43:00,
2013-04-11 12:53:00,33.0,29.0,29.81,East,86,14.0,-999.0,85,-99.99,,,-99.99,,2013-04-11 17:53:00,
2013-04-11 13:02:00,33.0,29.0,29.81,East,86,14.0,-999.0,85,-99.99,,,-99.99,,2013-04-11 18:02:00,
2013-04-11 13:13:00,33.0,29.0,29.81,East,86,14.0,-999.0,85,-99.99,,,-99.99,,2013-04-11 18:13:00,
2013-04-11 13:22:00,33.0,29.0,29.80,ENE,69,13.0,-999.0,86,-99.99,,,-99.99,,2013-04-11 18:22:00,
2013-04-11 13:32:00,33.0,29.0,29.80,ENE,69,13.0,-999.0,86,-99.99,,,-99.99,,2013-04-11 18:32:00,
2013-04-11 13:43:00,33.0,29.0,29.80,ENE,69,13.0,-999.0,86,-99.99,,,-99.99,,2013-04-11 18:43:00,
2013-04-11 13:53:00,34.0,30.0,29.78,NNE,28,7.0,-999.0,85,-99.99,,,-99.99,,2013-04-11 18:53:00,
2013-04-11 14:03:00,34.0,30.0,29.78,NNE,28,7.0,-999.0,85,-99.99,,,-99.99,,2013-04-11 19:03:00,
2013-04-11 14:14:00,34.0,30.0,29.78,NNE,28,7.0,-999.0,85,-99.99,,,-99.99,,2013-04-11 19:14:00,
2013-04-11 14:22:00,34.0,29.0,29.77,ENE,63,8.0,-999.0,82,-99.99,,,-99.99,,2013-04-11 19:22:00,
2013-04-11 14:32:00,34.0,29.0,29.77,ENE,63,8.0,-999.0,82,-99.99,,,-99.99,,2013-04-11 19:32:00,
2013-04-11 14:43:00,34.0,29.0,29.77,ENE,63,8.0,-999.0,82,-99.99,,,-99.99,,2013-04-11 19:43:00,
2013-04-11 14:53:00,35.0,29.0,29.76,ENE,62,6.0,-999.0,78,-99.99,,,-99.99,,2013-04-11 19:53:00,
2013-04-11 15:02:00,35.0,29.0,29.76,ENE,62,6.0,-999.0,78,-99.99,,,-99.99,,2013-04-11 20:02:00,
2013-04-11 15:13:00,35.0,29.0,29.76,ENE,62,6.0,-999.0,78,-99.99,,,-99.99,,2013-04-11 20:13:00,
2013-04-11 15:22:00,35.0,29.0,29.77,NE,43,15.0,-999.0,77,-99.99,,,-99.99,,2013-04-11 20:22:00,
2013-04-11 15:33:00,35.0,29.0,29.77,NE,43,15.0,-999.0,77,-99.99,,,-99.99,,2013-04-11 20:33:00,
2013-04-11 15:43:00,35.0,29.0,29.77,NE,43,15.0,-999.0,77,-99.99,,,-99.99,,2013-04-11 20:43:00,
2013-04-11 15:52:00,34.0,28.0,29.77,NE,55,6.0,-999.0,80,-99.99,,,-99.99,,2013-04-11 20:52:00,
2013-04-11 16:02:00,34.0,28.0,29.77,NE,55,6.0,-999.0,80,-99.99,,,-99.99,,2013-04-11 21:02:00,
2013-04-11 16:12:00,34.0,28.0,29.77,NE,55,6.0,-999.0,80,-99.99,,,-99.99,,2013-04-11 21:12:00,
2013-04-11 16:22:00,34.0,29.0,29.77,NE,52,8.0,-999.0,81,-99.99,,,-99.99,,2013-04-11 21:22:00,
2013-04-11 16:33:00,34.0,29.0,29.77,NE,52,8.0,-999.0,81,-99.99,,,-99.99,,2013-04-11 21:33:00,
2013-04-11 16:43:00,34.0,29.0,29.77,NE,52,8.0,-999.0,81,-99.99,,,-99.99,,2013-04-11 21:43:00,
2013-04-11 16:54:00,34.0,30.0,29.77,NE,46,14.0,-999.0,84,-99.99,,,-99.99,,2013-04-11 21:54:00,
2013-04-11 17:03:00,34.0,30.0,29.77,NE,46,14.0,-999.0,84,-99.99,,,-99.99,,2013-04-11 22:03:00,
2013-04-11 17:13:00,34.0,30.0,29.77,NE,46,14.0,-999.0,84,-99.99,,,-99.99,,2013-04-11 22:13:00,
2013-04-11 17:23:00,34.0,29.0,29.77,ENE,77,14.0,-999.0,83,-99.99,,,-99.99,,2013-04-11 22:23:00,
2013-04-11 17:33:00,34.0,29.0,29.77,ENE,77,14.0,-999.0,83,-99.99,,,-99.99,,2013-04-11 22:33:00,
2013-04-11 17:44:00,34.0,29.0,29.77,ENE,77,14.0,-999.0,83,-99.99,,,-99.99,,2013-04-11 22:44:00,
2013-04-11 17:53:00,34.0,30.0,29.77,ENE,57,13.0,-999.0,84,-99.99,,,-99.99,,2013-04-11 22:53:00,
2013-04-11 18:03:00,34.0,30.0,29.77,ENE,57,13.0,-999.0,84,-99.99,,,-99.99,,2013-04-11 23:03:00,
2013-04-11 18:12:00,34.0,30.0,29.77,ENE,57,13.0,-999.0,84,-99.99,,,-99.99,,2013-04-11 23:12:00,
2013-04-11 18:23:00,33.0,30.0,29.78,NE,35,5.0,-999.0,88,-99.99,,,-99.99,,2013-04-11 23:23:00,
2013-04-11 18:32:00,33.0,30.0,29.78,NE,35,5.0,-999.0,88,-99.99,,,-99.99,,2013-04-11 23:32:00,
2013-04-11 18:43:00,33.0,30.0,29.78,NE,35,5.0,-999.0,88,-99.99,,,-99.99,,2013-04-11 23:43:00,
2013-04-11 18:53:00,32.0,29.0,29.78,NE,37,5.0,-999.0,90,-99.99,,,-99.99,,2013-04-11 23:53:00,
2013-04-11 19:02:00,32.0,29.0,29.78,NE,37,5.0,-999.0,90,-99.99,,,-99.99,,2013-04-12 00:02:00,
2013-04-11 19:12:00,32.0,29.0,29.78,NE,37,5.0,-999.0,90,-99.99,,,-99.99,,2013-04-12 00:12:00,
2013-04-11 19:22:00,32.0,30.0,29.77,NE,41,3.0,-999.0,91,-99.99,,,-99.99,,2013-04-12 00:22:00,
2013-04-11 19:32:00,32.0,30.0,29.77,NE,41,3.0,-999.0,91,-99.99,,,-99.99,,2013-04-12 00:32:00,
2013-04-11 19:43:00,32.0,30.0,29.77,NE,41,3.0,-999.0,91,-99.99,,,-99.99,,2013-04-12 00:43:00,
2013-04-11 19:53:00,32.0,30.0,29.76,North,7,10.0,-999.0,92,-99.99,,,-99.99,,2013-04-12 00:53:00,
2013-04-11 20:02:00,32.0,30.0,29.76,North,7,10.0,-999.0,92,-99.99,,,-99.99,,2013-04-12 01:02:00,
2013-04-11 20:12:00,32.0,30.0,29.76,North,7,10.0,-999.0,92,-99.99,,,-99.99,,2013-04-12 01:12:00,
2013-04-11 20:22:00,31.0,29.0,29.75,NNE,17,15.0,-999.0,92,-99.99,,,-99.99,,2013-04-12 01:22:00,
2013-04-11 20:32:00,31.0,29.0,29.75,NNE,17,15.0,-999.0,92,-99.99,,,-99.99,,2013-04-12 01:32:00,
2013-04-11 20:42:00,31.0,29.0,29.75,NNE,17,15.0,-999.0,92,-99.99,,,-99.99,,2013-04-12 01:42:00,
2013-04-11 20:52:00,31.0,29.0,29.76,NNE,25,10.0,-999.0,93,-99.99,,,-99.99,,2013-04-12 01:52:00,
2013-04-11 21:03:00,31.0,29.0,29.76,NNE,25,10.0,-999.0,93,-99.99,,,-99.99,,2013-04-12 02:03:00,
2013-04-11 21:12:00,31.0,29.0,29.76,NNE,25,10.0,-999.0,93,-99.99,,,-99.99,,2013-04-12 02:12:00,
2013-04-11 21:22:00,31.0,29.0,29.77,NNE,23,5.0,-999.0,93,-99.99,,,-99.99,,2013-04-12 02:22:00,
2013-04-11 21:32:00,31.0,29.0,29.77,NNE,23,5.0,-999.0,93,-99.99,,,-99.99,,2013-04-12 02:32:00,
2013-04-11 21:42:00,31.0,29.0,29.77,NNE,23,5.0,-999.0,93,-99.99,,,-99.99,,2013-04-12 02:42:00,
2013-04-11 21:52:00,30.0,28.0,29.77,North,10,6.0,-999.0,93,-99.99,,,-99.99,,2013-04-12 02:52:00,
2013-04-11 22:02:00,30.0,28.0,29.77,North,10,6.0,-999.0,93,-99.99,,,-99.99,,2013-04-12 03:02:00,
2013-04-11 22:12:00,30.0,28.0,29.77,North,10,6.0,-999.0,93,-99.99,,,-99.99,,2013-04-12 03:12:00,
2013-04-11 22:22:00,30.0,28.0,29.76,NNE,23,12.0,-999.0,93,-99.99,,,-99.99,,2013-04-12 03:22:00,
2013-04-11 22:33:00,30.0,28.0,29.76,NNE,23,12.0,-999.0,93,-99.99,,,-99.99,,2013-04-12 03:33:00,
2013-04-11 22:43:00,30.0,28.0,29.76,NNE,23,12.0,-999.0,93,-99.99,,,-99.99,,2013-04-12 03:43:00,
2013-04-11 22:53:00,29.0,27.0,29.77,NE,37,10.0,-999.0,93,-99.99,,,-99.99,,2013-04-12 03:53:00,
2013-04-11 23:03:00,29.0,27.0,29.77,NE,37,10.0,-999.0,93,-99.99,,,-99.99,,2013-04-12 04:03:00,
2013-04-11 23:13:00,29.0,27.0,29.77,NE,37,10.0,-999.0,93,-99.99,,,-99.99,,2013-04-12 04:13:00,
2013-04-11 23:22:00,29.0,27.0,29.77,North,2,8.0,-999.0,92,-99.99,,,-99.99,,2013-04-12 04:22:00,
2013-04-11 23:33:00,29.0,27.0,29.77,North,2,8.0,-999.0,92,-99.99,,,-99.99,,2013-04-12 04:33:00,
2013-04-11 23:43:00,29.0,27.0,29.77,North,2,8.0,-999.0,92,-99.99,,,-99.99,,2013-04-12 04:43:00,
2013-04-11 23:53:00,29.0,27.0,29.77,NNE,30,7.0,-999.0,93,-99.99,,,-99.99,,2013-04-12 04:53:00,